TimeCST,TemperatureF,Dew PointF,Humidity,Sea Level PressureIn,VisibilityMPH,Wind Direction,Wind SpeedMPH,Gust SpeedMPH,PrecipitationIn,Events,Conditions,WindDirDegrees,DateUTC
12:53 AM,34.0,26.1,73,30.30,10.0,North,15.0,-,N/A,,Overcast,10,2013-02-15 06:53:00
1:53 AM,32.0,25.0,75,30.32,10.0,North,13.8,-,N/A,,Clear,10,2013-02-15 07:53:00
2:53 AM,30.0,25.0,82,30.32,10.0,North,9.2,-,N/A,,Clear,10,2013-02-15 08:53:00
3:53 AM,30.0,24.1,79,30.32,10.0,North,8.1,-,N/A,,Clear,10,2013-02-15 09:53:00
4:53 AM,30.0,24.1,79,30.34,10.0,North,8.1,-,N/A,,Partly Cloudy,350,2013-02-15 10:53:00
5:53 AM,30.0,24.1,79,30.35,10.0,North,6.9,-,N/A,,Overcast,350,2013-02-15 11:53:00
6:53 AM,30.9,24.1,76,30.36,10.0,NNW,6.9,-,N/A,,Overcast,340,2013-02-15 12:53:00
7:53 AM,30.9,24.1,76,30.37,10.0,North,8.1,-,N/A,,Overcast,350,2013-02-15 13:53:00
8:53 AM,33.1,25.0,72,30.38,10.0,North,4.6,-,N/A,,Mostly Cloudy,10,2013-02-15 14:53:00
9:53 AM,35.1,24.1,64,30.40,10.0,North,6.9,-,N/A,,Mostly Cloudy,10,2013-02-15 15:53:00
10:53 AM,37.0,21.9,54,30.40,10.0,North,4.6,-,N/A,,Mostly Cloudy,10,2013-02-15 16:53:00
11:53 AM,39.0,21.9,50,30.39,10.0,Calm,Calm,-,N/A,,Clear,0,2013-02-15 17:53:00
12:53 PM,39.9,19.0,43,30.37,10.0,WNW,4.6,-,N/A,,Clear,300,2013-02-15 18:53:00
1:53 PM,39.9,24.1,53,30.34,10.0,SE,5.8,-,N/A,,Scattered Clouds,130,2013-02-15 19:53:00
2:53 PM,43.0,19.0,38,30.30,10.0,WSW,9.2,16.1,N/A,,Partly Cloudy,250,2013-02-15 20:53:00
3:53 PM,44.1,23.0,43,30.30,10.0,WSW,6.9,-,N/A,,Mostly Cloudy,240,2013-02-15 21:53:00
4:53 PM,45.0,24.1,44,30.28,10.0,SW,15.0,-,N/A,,Partly Cloudy,230,2013-02-15 22:53:00
5:53 PM,42.1,26.1,53,30.28,10.0,SW,13.8,-,N/A,,Partly Cloudy,220,2013-02-15 23:53:00
6:53 PM,37.9,26.1,62,30.29,10.0,SSW,10.4,-,N/A,,Scattered Clouds,200,2013-02-16 00:53:00
7:53 PM,35.1,26.1,70,30.31,10.0,South,6.9,-,N/A,,Scattered Clouds,190,2013-02-16 01:53:00
8:53 PM,36.0,26.1,67,30.32,10.0,SW,8.1,-,N/A,,Mostly Cloudy,220,2013-02-16 02:53:00
9:53 PM,37.9,26.1,62,30.35,10.0,NW,5.8,-,N/A,,Overcast,320,2013-02-16 03:53:00
10:53 PM,35.1,27.0,72,30.38,10.0,NNE,11.5,-,N/A,,Partly Cloudy,20,2013-02-16 04:53:00
11:53 PM,32.0,25.0,75,30.38,10.0,North,9.2,-,N/A,,Clear,10,2013-02-16 05:53:00